Colby, KS

3:08 AM CDT on May 24, 2017 (GMT -0500)
Shaltz

Weather History for KCBK - April, 2013

Change the Weather History Date:

Monday, April 22, 2013

  Actual Average (KGLD) Record (KGLD)
Temperature  
Mean Temperature 40 °F -  
Max Temperature 51 °F 66 °F 96 °F (1989)
Min Temperature 28 °F 36 °F 22 °F (1982)
Degree Days  
Heating Degree Days 26    
Moisture  
Dew Point 39 °F    
Average Humidity 98    
Maximum Humidity 100    
Minimum Humidity 71    
Precipitation  
Precipitation 0.00 in - - ()
Sea Level Pressure  
Sea Level Pressure 30.03 in    
Wind  
Wind Speed 15 mph (NNE)    
Max Wind Speed 31 mph    
Max Gust Speed 39 mph    
Visibility 7 miles    
Events Fog , Rain , Snow    
Averages and records for this station are not official NWS values.
T = Trace of Precipitation, MM = Missing Value Source: NWS Daily Summary

Daily Weather History Graph

Daily Weather History Graph

Search for Another Location

Airport or City:

Trip Planner

Search our weather history database for the weather conditions in past years. The results will help you decide how hot, cold, wet, or windy it might be!

Date:

Astronomy

Apr. 22, 2013 Rise Set
Actual Time 6:56 AM CDT 8:29 PM CDT
Civil Twilight 6:28 AM CDT 8:57 PM CDT
Nautical Twilight 5:54 AM CDT 9:31 PM CDT
Astronomical Twilight 5:18 AM CDT 10:08 PM CDT
Moon 5:21 PM CDT (4/22) 4:51 AM CDT (4/22)
Length of Visible Light 14h 29m
Length of Day
13h 32m
Waxing Gibbous, 88% of the Moon is Illuminated
Apr 22
Waxing Gibbous
Apr 25
Full
May 2
Last Quarter
May 9
New
May 17
First Quarter

Hourly Weather History & Observations

Time (CDT) Temp. Windchill Dew Point Humidity Pressure Visibility Wind Dir Wind Speed Gust Speed Precip Events Conditions
12:15 AM 51.8 °F - 42.8 °F 71% 30.06 in 10.0 mi North 11.5 mph 16.1 mph N/A Rain Light Rain
12:35 AM 50.0 °F - 44.6 °F 82% 30.03 in 10.0 mi NNE 11.5 mph 16.1 mph N/A   Light Drizzle
12:55 AM 46.4 °F 41.9 °F 44.6 °F 93% 30.06 in 10.0 mi North 9.2 mph - N/A   Scattered Clouds
1:15 AM 44.6 °F 38.8 °F 42.8 °F 93% 30.05 in 10.0 mi North 11.5 mph - N/A   Scattered Clouds
1:35 AM 46.4 °F 40.7 °F 44.6 °F 93% 30.04 in 10.0 mi North 12.7 mph - N/A   Scattered Clouds
1:55 AM 46.4 °F 40.7 °F 44.6 °F 93% 30.03 in 10.0 mi North 12.7 mph - N/A   Mostly Cloudy
2:15 AM 46.4 °F 40.4 °F 44.6 °F 93% 30.02 in 10.0 mi North 13.8 mph - N/A   Scattered Clouds
2:35 AM 44.6 °F 38.4 °F 44.6 °F 100% 30.01 in 10.0 mi NNE 12.7 mph - N/A   Clear
2:55 AM 44.6 °F 38.4 °F 44.6 °F 100% 29.98 in 10.0 mi NE 12.7 mph - N/A   Clear
3:15 AM 42.8 °F 38.6 °F 42.8 °F 100% 29.98 in 10.0 mi East 6.9 mph - N/A   Clear
3:35 AM 42.8 °F 38.0 °F 42.8 °F 100% 29.97 in 10.0 mi East 8.1 mph - N/A   Clear
3:55 AM 41.0 °F 35.2 °F 41.0 °F 100% 29.96 in 7.0 mi East 9.2 mph - N/A   Clear
4:15 AM 42.8 °F 37.0 °F 42.8 °F 100% 29.95 in 5.0 mi East 10.4 mph - N/A   Clear
4:35 AM 42.8 °F 37.0 °F 42.8 °F 100% 29.95 in 4.0 mi East 10.4 mph - N/A   Mostly Cloudy
4:55 AM 42.8 °F 37.5 °F 42.8 °F 100% 29.95 in 1.2 mi East 9.2 mph - N/A   Overcast
5:15 AM 42.8 °F 36.6 °F 42.8 °F 100% 29.93 in 0.5 mi East 11.5 mph - N/A Fog Fog
5:35 AM 42.8 °F 36.2 °F 42.8 °F 100% 29.92 in 0.5 mi ESE 12.7 mph - N/A Fog Fog
5:55 AM 42.8 °F 37.0 °F 42.8 °F 100% 29.91 in 0.5 mi East 10.4 mph - N/A Fog Fog
6:15 AM 42.8 °F 38.0 °F 42.8 °F 100% 29.91 in 1.8 mi ESE 8.1 mph - N/A   Overcast
6:35 AM 41.0 °F 37.1 °F 41.0 °F 100% 29.90 in 4.0 mi ESE 5.8 mph - N/A   Scattered Clouds
6:55 AM 42.8 °F 38.6 °F 42.8 °F 100% 29.90 in 7.0 mi SE 6.9 mph - N/A   Mostly Cloudy
7:15 AM 42.8 °F 37.5 °F 42.8 °F 100% 29.90 in 7.0 mi SE 9.2 mph - N/A   Scattered Clouds
7:35 AM 42.8 °F 37.5 °F 42.8 °F 100% 29.90 in 5.0 mi SSE 9.2 mph - N/A   Scattered Clouds
7:55 AM 44.6 °F 38.8 °F 44.6 °F 100% 29.89 in 7.0 mi SSE 11.5 mph - N/A   Mostly Cloudy
8:15 AM 46.4 °F 41.1 °F 46.4 °F 100% 29.89 in 7.0 mi SE 11.5 mph - N/A   Overcast
8:35 AM 48.2 °F - 48.2 °F 100% 29.89 in 7.0 mi SSE 10.4 mph - N/A   Overcast
8:55 AM 50.0 °F - 50.0 °F 100% 29.91 in 10.0 mi South 5.8 mph - N/A   Overcast
9:15 AM 50.0 °F - 50.0 °F 100% 29.91 in 7.0 mi South 8.1 mph - N/A   Overcast
9:35 AM 50.0 °F - 50.0 °F 100% 29.91 in 7.0 mi South 9.2 mph - N/A   Overcast
9:55 AM 50.0 °F - 50.0 °F 100% 29.91 in 5.0 mi SSW 6.9 mph - N/A   Overcast
10:15 AM 50.0 °F - 50.0 °F 100% 29.92 in 7.0 mi SW 6.9 mph - N/A   Overcast
10:35 AM 50.0 °F - 50.0 °F 100% 29.92 in 7.0 mi NNW 12.7 mph - N/A   Overcast
10:55 AM 44.6 °F 38.4 °F 44.6 °F 100% 29.92 in 0.8 mi North 12.7 mph - N/A   Overcast
11:15 AM 44.6 °F 37.8 °F 44.6 °F 100% 29.93 in 1.5 mi North 15.0 mph - N/A   Overcast
11:35 AM 44.6 °F 36.9 °F 44.6 °F 100% 29.93 in 3.0 mi North 18.4 mph - N/A   Overcast
11:55 AM 46.4 °F 39.8 °F 46.4 °F 100% 29.93 in 7.0 mi NNE 16.1 mph - N/A   Overcast
12:15 PM 46.4 °F 39.5 °F 46.4 °F 100% 29.93 in 10.0 mi NNE 17.3 mph - N/A   Overcast
12:35 PM 50.0 °F - 48.2 °F 94% 29.93 in 10.0 mi NE 17.3 mph - N/A   Overcast
12:55 PM 50.0 °F - 48.2 °F 94% 29.94 in 10.0 mi NNE 16.1 mph - N/A   Overcast
1:15 PM 48.2 °F - 46.4 °F 93% 29.96 in 10.0 mi North 20.7 mph 25.3 mph N/A   Overcast
1:35 PM 44.6 °F 35.7 °F 44.6 °F 100% 29.97 in 3.0 mi North 24.2 mph 31.1 mph N/A   Overcast
1:55 PM 41.0 °F 30.5 °F 41.0 °F 100% 30.00 in 5.0 mi North 26.5 mph 32.2 mph N/A   Overcast
2:15 PM 37.4 °F 25.4 °F 37.4 °F 100% 30.02 in 4.0 mi North 27.6 mph 34.5 mph N/A   Overcast
2:35 PM 35.6 °F 23.4 °F 35.6 °F 100% 30.04 in 10.0 mi North 25.3 mph 33.4 mph N/A   Overcast
2:55 PM 35.6 °F 22.7 °F 35.6 °F 100% 30.05 in 10.0 mi North 28.8 mph 33.4 mph N/A   Overcast
3:15 PM 33.8 °F 20.3 °F 33.8 °F 100% 30.06 in 7.0 mi North 28.8 mph 34.5 mph N/A   Overcast
3:35 PM 33.8 °F 20.3 °F 33.8 °F 100% 30.07 in 7.0 mi North 28.8 mph 34.5 mph N/A   Overcast
3:55 PM 32.0 °F 18.1 °F 32.0 °F 100% 30.08 in 7.0 mi North 27.6 mph 36.8 mph N/A   Overcast
4:15 PM 32.0 °F 17.4 °F 32.0 °F 100% 30.07 in 5.0 mi North 31.1 mph 39.1 mph N/A   Overcast
4:35 PM 32.0 °F 17.9 °F 32.0 °F 100% 30.08 in 10.0 mi North 28.8 mph 35.7 mph N/A   Overcast
4:55 PM 32.0 °F 17.6 °F 32.0 °F 100% 30.09 in 10.0 mi North 29.9 mph 34.5 mph N/A   Overcast
5:15 PM 32.0 °F 18.1 °F 32.0 °F 100% 30.11 in 10.0 mi North 27.6 mph 35.7 mph N/A   Overcast
5:35 PM 33.8 °F 20.1 °F 32.0 °F 93% 30.09 in 10.0 mi North 29.9 mph 36.8 mph N/A   Overcast
5:55 PM 33.8 °F 21.3 °F 32.0 °F 93% 30.11 in 10.0 mi North 24.2 mph 33.4 mph N/A   Overcast
6:15 PM 33.8 °F 20.5 °F 32.0 °F 93% 30.10 in 10.0 mi North 27.6 mph 34.5 mph N/A   Overcast
6:35 PM 33.8 °F 20.5 °F 30.2 °F 87% 30.15 in 10.0 mi North 27.6 mph 33.4 mph N/A   Overcast
6:55 PM 32.0 °F 18.1 °F 30.2 °F 93% 30.12 in 10.0 mi North 27.6 mph 34.5 mph N/A   Overcast
7:15 PM 32.0 °F 18.6 °F 30.2 °F 93% 30.14 in 1.2 mi North 25.3 mph 34.5 mph N/A Snow Light Snow
7:35 PM 32.0 °F 18.9 °F 30.2 °F 93% 30.15 in 1.2 mi North 24.2 mph 31.1 mph N/A Snow Light Snow
7:55 PM 30.2 °F 15.9 °F 30.2 °F 100% 30.17 in 10.0 mi NNE 26.5 mph 29.9 mph N/A Snow Light Snow
8:15 PM 30.2 °F 16.2 °F 30.2 °F 100% 30.18 in 10.0 mi NNE 25.3 mph 32.2 mph N/A Snow Light Snow
8:35 PM 30.2 °F 17.1 °F 30.2 °F 100% 30.19 in 2.5 mi North 21.9 mph 29.9 mph N/A Snow Light Snow
8:55 PM 30.2 °F 16.8 °F 30.2 °F 100% 30.20 in 1.2 mi North 23.0 mph 29.9 mph N/A Snow Snow
9:15 PM 30.2 °F 18.5 °F 30.2 °F 100% 30.27 in 1.5 mi North 17.3 mph 21.9 mph N/A Snow Light Snow
9:35 PM 30.2 °F 18.1 °F 30.2 °F 100% 30.25 in 1.0 mi North 18.4 mph 26.5 mph N/A Snow Snow
9:55 PM 30.2 °F 16.8 °F 30.2 °F 100% 30.26 in - North 23.0 mph 26.5 mph N/A   Overcast
10:15 PM 28.4 °F 15.4 °F 28.4 °F 100% 30.20 in - NNE 19.6 mph 25.3 mph N/A   Unknown
10:35 PM 28.4 °F 14.7 °F 28.4 °F 100% 30.27 in - North 21.9 mph 28.8 mph N/A   Overcast
10:55 PM 28.4 °F 14.7 °F 28.4 °F 100% 30.25 in - North 21.9 mph - N/A   Overcast
11:15 PM 28.4 °F 14.7 °F 28.4 °F 100% 30.26 in - North 21.9 mph 29.9 mph N/A   Unknown
11:35 PM 28.4 °F 15.1 °F 28.4 °F 100% 30.27 in - North 20.7 mph 26.5 mph N/A   Unknown
11:55 PM 28.4 °F 16.6 °F 28.4 °F 100% 30.27 in - North 16.1 mph 24.2 mph N/A   Unknown